Wetbulb
47.35 47.30 47.24 47.34 47.34 47.41 47.49 47.72 48.06 48.25 48.40 48.52 48.69 48.88 49.10 48.99 48.92 48.99 49.20 49.36 49.18 49.12 49.16 49.37 49.42 49.62 49.82 50.18 50.08 49.97 49.83 49.64 49.43 49.16 48.82 48.34 48.03 47.93 47.93 47.79 47.53 47.22 46.93 46.63 46.53 46.34 46.21 46.04 45.69 45.21 44.80 44.67 44.42 44.34 44.28 44.32 44.32 44.05 43.75 43.44 43.15 43.08 42.93 42.65 42.37 42.21 42.24 42.06 41.98
47.48 47.32 47.08 46.64 46.63 46.78 47.03 47.14 47.41 47.67 48.02 48.39 48.52 48.74 48.84 48.70 48.52 48.50 48.60 48.83 48.97 49.20 49.31 49.30 49.57 49.62 49.64 49.81 49.85 49.75 49.49 49.31 49.02 48.83 48.58 48.25 48.28 48.18 48.00 47.83 47.65 47.46 47.11 46.81 46.51 46.15 45.93 45.89 45.44 44.93 44.47 44.37 44.19 44.00 44.04 44.41 44.37 44.02 43.62 43.44 43.25 43.14 42.92 42.51 42.47 42.45 42.45 42.28 42.22
47.69 47.39 47.23 46.87 46.71 46.56 46.38 46.45 46.90 47.38 47.86 48.14 48.28 48.28 48.17 48.01 47.72 47.65 47.86 48.15 48.55 48.81 48.81 48.81 49.17 49.31 49.40 49.44 49.47 49.47 49.31 49.16 48.83 48.47 48.19 47.96 48.01 47.97 47.97 47.82 47.68 47.57 47.29 46.96 46.66 46.27 45.94 45.76 45.33 44.85 44.38 43.94 43.84 43.68 43.65 44.18 44.24 43.96 43.47 43.29 43.29 43.10 42.73 42.24 42.40 42.55 42.45 42.13 42.20
47.98 47.72 47.37 47.13 47.07 46.99 46.71 46.52 46.75 46.93 47.12 47.09 47.29 47.25 47.00 46.93 46.78 46.89 47.12 47.50 47.75 47.96 48.04 48.23 48.54 48.80 48.95 49.02 48.95 48.96 48.89 48.80 48.58 48.21 47.92 47.77 47.75 47.86 47.77 47.75 47.59 47.41 47.29 47.11 46.75 46.54 46.14 45.85 45.23 44.70 44.37 44.13 43.90 43.67 43.63 43.79 43.95 43.77 43.43 43.39 43.28 43.05 42.71 42.33 42.51 42.43 42.25 41.96 42.03
48.06 47.86 47.70 47.40 47.18 46.97 46.92 46.71 46.59 46.48 46.48 46.36 46.06 45.91 45.94 46.01 46.24 46.36 46.59 46.68 46.85 47.18 47.52 47.85 47.93 48.07 48.22 48.26 48.08 48.08 48.08 48.19 48.01 47.82 47.52 47.48 47.45 47.56 47.58 47.60 47.48 47.30 47.19 47.11 46.85 46.57 46.22 45.89 45.13 44.67 44.31 44.23 43.79 43.71 43.85 44.11 43.97 43.73 43.41 43.41 43.22 42.99 42.73 42.46 42.42 42.38 42.16 41.91 41.84
47.64 47.52 47.50 47.34 47.10 46.96 46.71 46.63 46.44 46.30 46.08 45.93 45.60 45.46 45.50 45.69 45.88 46.03 46.14 46.21 46.62 46.93 47.22 47.19 46.94 47.03 47.12 47.22 47.18 47.11 47.11 47.24 47.39 47.31 47.23 47.05 47.12 47.16 47.22 47.22 47.37 47.23 47.14 46.99 46.81 46.50 46.23 45.69 44.88 44.52 44.29 44.08 44.02 44.12 44.29 44.33 43.88 43.55 43.35 43.17 43.04 42.97 42.79 42.49 42.36 42.29 42.11 41.85 41.65
47.24 47.11 47.04 47.01 46.89 46.84 46.59 46.61 46.44 46.27 45.97 45.63 45.38 45.31 45.52 45.82 45.93 46.00 46.06 46.15 46.19 46.36 46.34 46.29 46.29 46.36 46.36 46.46 46.31 46.27 46.27 46.31 46.54 46.53 46.63 46.53 46.68 46.71 46.68 46.78 46.96 47.04 46.91 46.80 46.66 46.32 45.96 45.59 44.64 44.12 43.96 43.91 43.66 43.83 44.21 44.15 43.74 43.40 43.08 42.81 43.03 43.00 42.87 42.74 42.55 42.34 41.99 41.64 41.53
47.08 47.07 47.00 46.90 46.84 46.69 46.67 46.48 46.29 46.00 45.66 45.26 45.29 45.37 45.59 45.76 45.76 45.76 45.73 45.84 45.74 45.88 45.96 46.02 46.13 46.13 46.04 45.86 45.62 45.50 45.50 45.45 45.53 45.69 45.89 45.97 46.10 46.10 46.21 46.25 46.25 46.31 46.53 46.61 46.32 45.98 45.69 45.29 44.53 44.06 43.77 43.67 43.37 43.60 43.88 44.08 43.66 43.23 42.95 42.77 42.98 43.07 43.09 42.99 42.88 42.46 41.84 41.41 41.21
46.86 47.00 47.04 47.04 47.00 46.77 46.61 46.44 46.14 45.75 45.44 45.32 45.42 45.59 45.65 45.65 45.60 45.55 45.46 45.50 45.76 45.93 46.02 45.84 45.94 45.82 45.76 45.44 45.24 45.06 44.97 44.83 44.84 44.98 45.15 45.30 45.37 45.41 45.48 45.57 45.57 45.60 45.79 46.12 45.94 45.74 45.42 44.91 44.33 44.11 43.80 43.44 43.20 43.37 43.72 43.97 43.50 43.07 42.73 42.73 42.86 43.00 43.18 43.16 42.91 42.42 41.86 41.41 41.04
46.45 46.65 46.69 46.66 46.68 46.61 46.41 46.18 46.05 45.74 45.57 45.45 45.64 45.80 45.84 45.75 45.69 45.60 45.65 45.66 45.76 45.76 45.65 45.61 45.70 45.45 45.21 45.06 44.92 44.81 44.74 44.64 44.61 44.56 44.56 44.67 44.70 44.67 44.74 44.84 45.00 45.01 45.13 45.53 45.61 45.51 45.16 44.49 44.09 43.92 43.77 43.68 43.53 43.64 43.79 43.98 43.31 42.88 42.51 42.44 42.64 42.79 42.89 42.97 42.83 42.37 41.90 41.32 40.92
46.27 46.42 46.43 46.32 46.31 46.34 46.17 45.87 45.84 45.75 45.70 45.71 45.83 46.01 46.12 46.08 46.02 45.99 45.99 45.93 45.63 45.38 45.47 45.65 45.53 45.28 44.94 44.87 44.75 44.75 44.58 44.60 44.46 44.29 44.22 44.23 44.27 44.26 44.34 44.36 44.39 44.50 44.68 44.97 45.21 45.14 44.77 44.27 43.94 43.79 43.60 43.52 43.59 43.62 43.65 43.61 43.12 42.72 42.43 42.30 42.51 42.42 42.42 42.51 42.49 42.18 41.70 41.28 40.89
46.27 46.32 46.41 46.44 46.34 46.21 46.04 45.73 45.68 45.70 45.82 45.82 46.00 46.12 46.15 46.19 46.29 46.29 46.17 46.00 45.51 45.40 45.54 45.84 45.57 45.20 44.86 44.68 44.62 44.64 44.54 44.39 44.28 44.12 43.98 43.88 43.99 43.97 43.95 43.94 44.05 44.08 44.20 44.57 44.79 44.74 44.43 44.07 43.77 43.46 43.27 43.26 43.31 43.29 43.30 43.18 42.76 42.39 42.23 42.23 42.19 42.02 41.69 41.69 41.74 41.69 41.45 41.24 40.75
46.32 46.38 46.43 46.51 46.43 46.19 45.97 45.71 45.61 45.67 45.69 45.85 45.94 46.06 46.21 46.26 46.44 46.29 46.12 45.68 45.45 45.47 45.41 45.67 45.55 45.23 44.88 44.71 44.62 44.62 44.54 44.33 44.13 43.98 43.80 43.71 43.73 43.68 43.75 43.72 43.76 43.80 43.89 44.05 44.24 44.16 43.97 43.84 43.58 43.17 42.76 42.51 42.76 43.01 43.05 42.89 42.43 42.02 41.81 41.69 41.61 41.40 41.26 41.17 41.00 40.90 40.84 40.73 40.24
46.51 46.57 46.54 46.60 46.43 46.13 45.87 45.72 45.63 45.65 45.65 45.79 45.94 46.06 46.14 46.15 46.23 46.11 45.89 45.51 45.40 45.31 45.26 45.42 45.31 45.21 44.98 44.80 44.66 44.55 44.39 44.23 43.95 43.77 43.55 43.46 43.51 43.46 43.40 43.42 43.50 43.55 43.60 43.72 43.87 43.84 43.61 43.25 43.05 42.76 42.26 41.89 41.98 42.27 42.47 42.47 42.10 41.85 41.60 41.36 41.36 41.27 41.20 41.21 40.89 40.55 40.10 39.82 39.63
46.53 46.59 46.71 46.65 46.37 46.02 45.84 45.63 45.59 45.55 45.56 45.66 45.91 45.91 45.91 45.80 45.95 45.82 45.65 45.40 45.32 45.23 45.16 45.06 45.04 45.04 45.07 45.03 44.75 44.55 44.39 44.24 43.93 43.70 43.45 43.35 43.32 43.26 43.24 43.18 43.39 43.40 43.41 43.42 43.49 43.45 43.26 42.93 42.67 42.25 41.88 41.50 41.38 41.55 41.72 41.89 41.77 41.63 41.49 41.28 41.07 40.91 40.85 40.95 40.89 40.74 40.21 39.74 39.21
46.45 46.65 46.68 46.51 46.19 45.94 45.73 45.57 45.46 45.44 45.45 45.47 45.66 45.70 45.54 45.51 45.58 45.54 45.36 45.08 45.00 44.92 44.89 44.77 44.70 44.79 44.96 45.01 44.84 44.73 44.40 44.25 43.98 43.71 43.46 43.24 43.25 43.26 43.27 43.21 43.30 43.33 43.34 43.30 43.14 43.05 43.10 42.97 42.75 42.40 41.88 41.37 41.05 40.94 41.03 41.15 41.03 41.08 41.13 41.03 40.65 40.14 39.78 39.81 40.30 40.52 40.60 40.34 39.71
46.21 46.36 46.47 46.23 46.05 45.79 45.53 45.41 45.28 45.20 45.17 45.27 45.31 45.29 45.17 45.08 45.08 45.06 44.93 44.66 44.60 44.39 44.39 44.42 44.51 44.47 44.51 44.55 44.63 44.52 44.24 44.00 43.84 43.69 43.47 43.37 43.35 43.36 43.37 43.43 43.48 43.55 43.43 43.15 42.96 42.76 42.68 42.76 42.68 42.62 42.46 41.91 41.24 40.80 40.59 40.47 40.09 40.14 40.29 40.41 39.84 39.21 38.88 39.22 39.84 40.20 40.25 40.28 39.99
45.86 46.00 46.06 45.83 45.65 45.43 45.28 45.10 44.95 44.90 44.84 44.88 44.83 44.81 44.77 44.64 44.48 44.42 44.40 44.51 44.30 44.03 43.92 43.89 44.14 44.21 44.10 43.98 44.14 44.14 44.03 43.68 43.66 43.50 43.52 43.50 43.56 43.48 43.40 43.45 43.61 43.51 43.09 42.23 42.63 42.57 42.42 42.42 42.59 42.51 42.40 42.43 41.85 41.23 40.53 39.99 39.63 39.72 39.81 39.78 39.11 38.56 38.36 38.90 39.49 39.79 39.85 39.68 39.54
45.40 45.46 45.44 45.30 45.08 44.90 44.79 44.56 44.43 44.38 44.36 44.39 44.35 44.35 44.26 44.23 44.10 43.94 43.90 44.07 44.01 43.94 43.80 43.55 43.70 43.77 43.81 43.73 43.75 43.79 43.80 43.66 43.56 43.54 43.59 43.69 43.66 43.62 43.46 43.42 43.50 43.18 42.16 39.98 41.48 42.09 42.12 42.09 42.10 42.01 41.87 41.74 41.23 40.54 40.13 39.86 39.73 39.70 39.74 39.57 38.77 38.32 38.02 38.35 38.67 38.94 39.06 38.89 38.96
44.95 44.90 44.83 44.77 44.61 44.41 44.23 44.07 44.01 43.92 43.95 43.95 43.85 43.82 43.75 43.83 43.74 43.62 43.50 43.53 43.79 43.80 43.70 43.42 43.29 43.31 43.42 43.55 43.48 43.48 43.48 43.60 43.55 43.44 43.42 43.56 43.54 43.51 43.47 43.42 43.34 43.01 41.61 37.99 40.05 41.25 41.77 41.75 41.68 41.50 41.03 39.54 38.73 38.72 39.16 39.43 39.42 39.47 39.42 39.32 38.78 38.47 38.08 37.86 37.70 37.63 37.64 37.68 38.12
44.54 44.52 44.40 44.34 44.06 43.84 43.64 43.64 43.59 43.55 43.56 43.45 43.42 43.31 43.36 43.39 43.34 43.30 43.30 43.42 43.61 43.57 43.42 43.27 43.11 43.10 43.14 43.22 43.14 43.15 43.26 43.35 43.33 43.23 43.16 43.26 43.33 43.42 43.46 43.37 43.17 43.01 42.00 38.90 39.41 40.63 41.63 41.55 41.31 40.44 38.92 36.45 36.18 36.68 37.54 38.26 38.62 38.80 38.84 38.98 38.92 38.47 37.89 37.67 37.27 37.00 37.00 37.28 37.55
44.10 44.08 43.99 43.82 43.55 43.35 43.26 43.26 43.31 43.20 43.05 43.06 43.03 43.03 43.11 43.07 42.97 43.05 43.30 43.51 43.42 43.30 43.05 42.97 42.93 42.94 42.95 42.87 42.84 42.88 42.96 43.02 43.11 43.04 43.00 43.02 43.07 43.20 43.32 43.23 43.00 43.01 42.45 40.23 38.32 38.80 40.06 40.13 39.30 37.54 35.98 35.43 34.92 35.25 36.02 37.02 37.77 38.29 38.58 38.90 38.97 37.96 36.68 36.40 37.13 37.17 37.02 36.94 36.90
43.62 43.55 43.39 43.29 43.21 43.00 42.92 42.84 42.77 42.77 42.65 42.54 42.66 42.66 42.66 42.57 42.73 42.84 43.01 43.02 42.98 42.81 42.73 42.76 42.80 42.81 42.83 42.80 42.81 42.69 42.65 42.53 42.60 42.76 42.87 42.88 42.97 43.02 43.15 43.06 43.14 43.17 42.80 41.62 39.01 37.56 36.88 36.65 35.56 34.74 34.47 35.09 34.16 34.65 35.73 36.77 37.29 37.72 38.06 38.48 38.19 36.99 35.61 35.07 35.70 35.83 35.83 36.01 36.34
43.16 43.08 43.00 42.79 42.79 42.55 42.51 42.39 42.31 42.19 42.06 42.06 42.22 42.26 42.22 42.25 42.33 42.41 42.46 42.46 42.43 42.35 42.43 42.30 42.51 42.54 42.63 42.64 42.57 42.41 42.20 42.08 42.04 42.23 42.42 42.65 42.75 42.76 42.81 42.74 42.60 42.64 42.59 42.53 41.68 40.55 39.56 39.30 37.79 36.90 36.20 35.45 35.45 36.33 37.32 37.65 37.84 37.91 37.76 37.65 37.42 36.85 36.08 35.30 35.04 35.04 35.21 35.55 36.35
42.79 42.62 42.42 42.21 42.17 42.01 42.01 41.85 41.73 41.64 41.68 41.75 41.92 41.87 41.87 41.82 41.82 41.87 41.79 41.75 41.79 41.87 41.92 41.96 42.08 42.16 42.19 42.11 42.07 42.07 41.98 41.78 41.71 41.71 41.83 41.98 42.18 42.31 42.28 42.13 42.09 41.82 41.70 42.24 42.86 43.04 42.95 42.61 41.85 40.74 39.34 37.75 38.46 39.28 39.81 39.74 39.54 39.11 38.53 37.73 37.09 36.85 36.68 36.57 36.48 36.43 36.21 35.84 35.94
42.39 42.23 41.98 41.82 41.70 41.57 41.41 41.37 41.33 41.29 41.37 41.45 41.53 41.49 41.48 41.47 41.43 41.35 41.32 41.08 41.16 41.32 41.48 41.52 41.56 41.56 41.51 41.50 41.50 41.53 41.48 41.48 41.50 41.43 41.36 41.29 41.41 41.49 41.56 41.53 41.81 40.05 38.49 39.80 41.90 42.88 43.09 43.30 43.22 42.26 40.85 39.33 40.28 40.73 40.97 40.93 40.72 40.45 39.91 39.34 38.79 37.87 37.06 36.91 37.69 38.08 38.09 37.48 37.15
41.72 41.55 41.47 41.32 41.24 41.00 40.96 41.09 41.05 41.01 40.97 41.09 41.09 41.01 41.05 41.00 40.96 40.84 40.69 40.57 40.69 40.84 41.01 40.97 40.96 41.03 40.97 40.92 40.89 40.78 40.78 40.89 41.03 41.08 41.01 40.89 40.85 40.81 40.93 41.08 41.24 39.49 38.03 39.67 41.93 42.96 43.14 43.35 43.56 42.79 41.18 38.68 40.19 40.97 41.16 41.09 41.33 41.29 41.29 41.22 41.03 40.07 38.89 37.99 38.48 38.95 39.07 38.79 38.57
40.83 40.79 40.76 40.70 40.45 40.46 40.51 40.72 40.57 40.53 40.49 40.53 40.61 40.61 40.65 40.57 40.41 40.25 40.09 40.09 40.17 40.21 40.21 40.29 40.52 40.50 40.45 40.21 40.23 40.20 40.25 40.36 40.48 40.57 40.65 40.77 40.57 40.57 40.53 40.69 40.21 39.50 39.38 41.38 42.50 42.93 43.05 43.22 43.26 43.05 42.46 41.48 41.47 41.61 41.84 41.79 41.71 41.79 41.94 42.01 41.68 41.48 41.30 40.94 40.73 40.45 40.13 39.71 39.56
39.92 39.90 39.98 39.93 39.85 39.91 40.09 40.19 40.12 40.05 40.13 40.21 40.21 40.21 40.21 40.05 39.86 39.74 39.66 39.66 39.54 39.51 39.43 39.50 39.81 39.84 39.69 39.50 39.62 39.82 39.94 39.94 40.09 40.21 40.25 40.33 40.21 40.21 40.25 40.33 40.33 40.76 41.40 42.31 42.48 42.56 42.64 42.68 42.72 42.72 42.64 42.34 41.28 41.00 41.01 41.14 40.95 41.00 41.29 41.60 41.92 42.03 41.96 41.78 41.73 41.65 41.44 41.02 40.64
39.56 39.78 39.77 39.56 39.55 39.57 39.72 39.82 39.76 39.86 39.90 39.90 39.86 39.74 39.58 39.42 39.30 39.18 39.14 39.07 38.91 39.00 39.04 39.31 39.23 39.12 38.96 39.00 39.15 39.19 39.31 39.51 39.74 39.90 39.86 39.65 39.57 39.66 39.82 39.98 39.97 40.18 40.73 41.77 42.02 42.10 42.22 42.18 42.26 42.34 42.34 42.34 41.68 41.36 41.28 41.00 40.74 40.84 41.03 41.28 41.75 42.02 42.11 42.30 42.06 42.10 42.02 41.81 41.39
39.85 40.10 40.02 39.49 39.25 39.28 39.39 39.57 39.64 39.62 39.58 39.51 39.35 39.19 39.03 38.83 38.74 38.71 38.60 38.60 38.72 38.84 39.08 39.19 38.88 38.65 38.61 38.77 38.81 38.85 38.89 39.08 39.27 39.31 39.27 39.18 39.14 39.27 39.43 39.66 39.53 39.59 40.00 41.31 41.52 41.73 41.81 41.89 41.97 42.09 42.17 42.25 41.55 41.16 40.89 40.62 40.37 40.27 40.29 40.59 40.97 41.31 41.68 41.92 42.18 42.41 42.48 42.15 41.96
40.19 40.24 39.99 39.25 39.00 39.04 39.19 39.27 39.29 39.27 39.23 39.12 38.84 38.68 38.55 38.43 38.32 38.44 38.53 38.61 38.53 38.61 38.61 38.46 38.26 38.07 38.19 38.35 38.35 38.43 38.54 38.62 38.73 38.80 38.95 38.98 38.91 38.95 39.03 39.15 39.22 39.22 39.58 40.83 41.12 41.36 41.48 41.60 41.72 41.80 41.96 42.04 41.34 40.91 40.60 40.09 40.18 40.10 40.09 40.15 40.28 40.61 40.90 41.04 41.63 42.20 42.41 42.21 42.36
40.36 40.14 39.73 39.02 38.77 38.77 38.85 39.00 38.94 38.87 38.80 38.57 38.45 38.28 38.14 38.17 38.19 38.27 38.31 38.36 38.29 38.18 37.92 37.81 37.62 37.58 37.48 37.67 37.71 37.86 38.01 38.23 38.46 38.69 38.88 38.88 38.72 38.57 38.50 38.53 38.77 39.22 39.83 40.55 40.87 41.07 41.15 41.27 41.38 41.54 41.66 41.78 41.00 40.44 40.05 39.58 39.50 39.45 39.60 39.97 40.06 40.28 40.59 40.82 41.33 41.81 42.20 42.40 42.51
40.00 39.59 39.17 38.79 38.61 38.56 38.62 38.69 38.70 38.51 38.32 38.04 37.99 37.94 37.88 37.79 37.66 37.63 37.70 37.94 37.92 37.89 37.74 37.67 37.59 37.48 37.48 37.60 37.56 37.55 37.70 38.00 38.18 38.34 38.34 38.42 38.27 38.04 37.88 37.79 38.09 38.85 39.70 40.27 40.55 40.66 40.82 40.85 41.01 41.20 41.36 41.39 40.45 39.77 39.34 39.06 38.81 38.63 38.81 39.55 39.61 39.89 40.23 40.38 40.59 40.82 41.11 41.33 41.71
39.47 39.11 38.71 38.56 38.52 38.38 38.40 38.37 38.22 37.99 37.74 37.48 37.39 37.43 37.47 37.40 37.24 37.23 37.32 37.58 37.66 37.59 37.48 37.56 37.63 37.63 37.56 37.71 37.71 37.66 37.54 37.50 37.62 37.73 37.81 37.81 37.65 37.42 37.27 37.22 37.64 38.51 39.32 39.83 40.06 40.21 40.37 40.52 40.67 40.86 40.89 40.56 39.65 39.00 38.65 38.51 38.27 38.17 38.26 38.66 39.07 39.43 39.85 40.55 40.58 40.19 39.99 40.29 41.21
39.28 38.88 38.48 38.31 38.19 38.08 37.96 37.89 37.73 37.44 37.15 36.89 36.81 36.90 36.96 37.01 37.07 37.17 37.35 37.51 37.28 37.10 36.99 37.11 37.15 37.18 37.18 37.22 37.28 37.36 37.28 37.12 37.06 37.10 37.17 37.28 37.08 36.81 36.59 36.74 37.16 37.91 38.70 39.23 39.46 39.68 39.79 40.01 40.24 40.35 40.34 39.73 38.80 38.30 38.01 37.73 37.60 37.68 37.82 38.08 38.55 39.12 39.81 40.73 41.03 40.60 40.04 39.97 40.37
39.03 38.71 38.30 37.87 37.74 37.61 37.56 37.44 37.16 36.80 36.59 36.43 36.44 36.48 36.51 36.62 36.66 36.95 37.16 37.28 36.75 36.49 36.42 36.54 36.57 36.54 36.61 36.60 36.75 36.86 37.05 37.08 36.85 36.67 36.68 36.75 36.59 36.36 36.16 36.21 36.63 37.22 37.95 38.55 38.92 39.14 39.24 39.59 39.90 39.97 39.67 38.73 37.96 37.48 37.28 37.07 36.97 37.23 37.58 37.82 38.21 38.65 39.30 39.80 40.45 40.30 39.58 38.65 38.87
38.81 38.52 38.15 37.60 37.38 37.25 37.16 36.97 36.68 36.36 36.17 36.14 36.28 36.34 36.40 36.37 36.39 36.57 36.78 36.85 36.32 36.02 35.98 36.03 36.04 36.14 36.29 36.47 36.46 36.58 36.77 36.93 36.77 36.44 36.23 36.23 36.18 36.13 35.86 35.75 36.04 36.57 37.23 37.89 38.38 38.63 38.85 39.24 39.55 39.54 39.16 38.05 37.41 37.08 36.93 36.81 36.89 37.06 37.40 37.71 38.04 38.45 38.99 39.43 40.08 40.58 40.39 38.72 39.89
38.54 38.30 38.01 37.56 37.23 36.98 36.78 36.51 36.28 36.15 36.07 36.04 36.10 36.09 36.19 36.10 36.03 36.27 36.55 36.66 36.29 36.02 35.75 35.65 35.68 35.87 36.20 36.31 36.16 36.09 36.17 36.37 36.51 36.36 36.07 35.81 35.95 36.04 35.90 35.47 35.61 36.05 36.78 37.55 37.91 38.21 38.55 38.90 39.18 39.34 39.05 38.15 37.57 37.25 37.27 37.13 37.28 37.30 37.54 37.85 38.10 38.52 38.99 39.49 39.77 40.25 40.52 40.46 41.43
38.35 38.19 37.87 37.47 37.06 36.81 36.53 36.23 36.15 36.07 36.05 36.00 35.83 35.73 35.80 35.90 35.99 36.23 36.54 36.52 36.34 36.15 35.85 35.55 35.66 35.81 35.95 36.05 35.68 35.49 35.49 35.72 35.98 36.05 35.91 35.68 35.88 36.03 36.02 35.53 35.50 35.80 36.43 37.20 37.59 37.99 38.30 38.73 39.06 39.30 39.10 38.23 37.85 37.77 37.73 37.72 37.76 37.71 37.82 38.04 38.17 38.42 38.90 39.66 39.97 40.25 40.58 41.29 41.71
38.27 38.00 37.68 37.43 37.15 36.72 36.40 36.02 36.05 36.16 36.18 35.97 35.79 35.74 35.88 36.10 36.12 36.17 36.22 36.16 36.09 35.94 35.68 35.45 35.49 35.60 35.59 35.60 35.26 35.02 34.94 35.00 35.32 35.52 35.71 35.66 35.67 35.80 35.88 35.58 35.40 35.48 35.93 36.67 37.28 37.80 38.26 38.65 39.02 39.31 39.18 38.35 37.97 37.93 38.10 38.04 37.87 37.78 37.94 38.41 38.44 38.64 39.06 39.66 40.15 40.46 40.69 41.15 41.47
MSLP
1021.26 1021.22 1021.22 1021.22 1021.14 1021.06 1020.98 1020.94 1020.82 1020.74 1020.66 1020.50 1020.34 1020.22 1020.06 1019.98 1019.86 1019.70 1019.58 1019.46 1019.34 1019.22 1019.06 1018.94 1018.78 1018.66 1018.58 1018.50 1018.38 1018.34 1018.26 1018.22 1018.22 1018.22 1018.22 1018.18 1018.18 1018.14 1018.10 1018.10 1018.14 1018.14 1018.10 1018.06 1018.06 1018.06 1018.06 1017.98 1017.94 1017.94 1017.90 1017.82 1017.78 1017.78 1017.70 1017.74 1017.70 1017.66 1017.66 1017.62 1017.58 1017.54 1017.54 1017.54 1017.50 1017.46 1017.46 1017.50 1017.50
1021.18 1021.18 1021.18 1021.18 1021.14 1021.06 1020.98 1020.86 1020.78 1020.70 1020.58 1020.42 1020.30 1020.18 1020.06 1019.94 1019.82 1019.70 1019.54 1019.42 1019.30 1019.14 1018.98 1018.82 1018.70 1018.58 1018.46 1018.34 1018.26 1018.22 1018.14 1018.06 1018.02 1018.02 1017.98 1017.94 1017.90 1017.90 1017.90 1017.86 1017.82 1017.86 1017.86 1017.90 1017.90 1017.86 1017.78 1017.78 1017.74 1017.70 1017.66 1017.62 1017.58 1017.50 1017.46 1017.42 1017.46 1017.42 1017.34 1017.30 1017.34 1017.34 1017.30 1017.26 1017.18 1017.14 1017.18 1017.22 1017.22
1021.06 1021.06 1021.06 1021.06 1021.06 1020.98 1020.90 1020.78 1020.66 1020.54 1020.42 1020.34 1020.26 1020.18 1020.06 1019.94 1019.86 1019.70 1019.54 1019.42 1019.22 1019.06 1018.94 1018.78 1018.62 1018.50 1018.34 1018.26 1018.18 1018.10 1018.02 1017.94 1017.90 1017.82 1017.78 1017.74 1017.66 1017.66 1017.62 1017.58 1017.54 1017.54 1017.58 1017.62 1017.66 1017.66 1017.58 1017.54 1017.54 1017.50 1017.42 1017.38 1017.34 1017.22 1017.14 1017.10 1017.14 1017.14 1017.06 1017.02 1017.06 1017.06 1017.02 1016.94 1016.90 1016.90 1016.94 1016.94 1016.94
1020.98 1020.98 1020.94 1020.94 1020.90 1020.82 1020.74 1020.66 1020.54 1020.46 1020.38 1020.34 1020.26 1020.18 1020.06 1019.98 1019.86 1019.74 1019.58 1019.38 1019.22 1019.06 1018.90 1018.78 1018.62 1018.46 1018.34 1018.22 1018.06 1017.98 1017.90 1017.78 1017.78 1017.70 1017.62 1017.50 1017.46 1017.38 1017.34 1017.30 1017.26 1017.22 1017.26 1017.30 1017.34 1017.34 1017.38 1017.38 1017.34 1017.30 1017.22 1017.10 1017.02 1016.94 1016.86 1016.78 1016.78 1016.78 1016.78 1016.74 1016.78 1016.74 1016.70 1016.62 1016.62 1016.62 1016.66 1016.66 1016.62
1020.90 1020.90 1020.86 1020.82 1020.78 1020.74 1020.70 1020.62 1020.54 1020.46 1020.34 1020.34 1020.26 1020.14 1020.02 1019.94 1019.78 1019.66 1019.50 1019.34 1019.18 1018.98 1018.86 1018.74 1018.62 1018.46 1018.30 1018.22 1018.06 1017.94 1017.82 1017.74 1017.66 1017.58 1017.46 1017.34 1017.22 1017.18 1017.10 1017.06 1016.98 1016.94 1016.94 1016.98 1017.02 1017.06 1017.10 1017.18 1017.18 1017.06 1016.98 1016.90 1016.78 1016.70 1016.62 1016.50 1016.50 1016.50 1016.46 1016.46 1016.42 1016.42 1016.42 1016.34 1016.34 1016.38 1016.38 1016.34 1016.34
1020.82 1020.82 1020.82 1020.78 1020.78 1020.70 1020.62 1020.62 1020.50 1020.42 1020.34 1020.26 1020.14 1020.02 1019.86 1019.78 1019.66 1019.50 1019.34 1019.22 1019.06 1018.90 1018.78 1018.74 1018.62 1018.46 1018.30 1018.18 1018.02 1017.90 1017.78 1017.66 1017.54 1017.42 1017.30 1017.22 1017.10 1017.02 1016.94 1016.82 1016.74 1016.70 1016.70 1016.70 1016.70 1016.74 1016.82 1016.94 1016.90 1016.78 1016.74 1016.62 1016.50 1016.38 1016.30 1016.30 1016.22 1016.22 1016.14 1016.14 1016.06 1016.06 1016.06 1016.06 1016.06 1016.06 1016.06 1016.06 1016.06
1020.82 1020.78 1020.78 1020.78 1020.70 1020.62 1020.58 1020.54 1020.46 1020.34 1020.30 1020.18 1019.98 1019.82 1019.70 1019.62 1019.50 1019.38 1019.22 1019.14 1018.98 1018.86 1018.74 1018.62 1018.50 1018.38 1018.22 1018.10 1017.98 1017.86 1017.70 1017.62 1017.46 1017.34 1017.22 1017.06 1016.94 1016.78 1016.74 1016.62 1016.54 1016.50 1016.46 1016.38 1016.42 1016.46 1016.50 1016.58 1016.58 1016.50 1016.42 1016.34 1016.26 1016.14 1016.06 1016.02 1015.94 1015.86 1015.78 1015.70 1015.66 1015.70 1015.70 1015.66 1015.70 1015.74 1015.78 1015.70 1015.70
1020.82 1020.78 1020.74 1020.70 1020.62 1020.58 1020.50 1020.46 1020.34 1020.26 1020.14 1020.02 1019.86 1019.70 1019.58 1019.50 1019.42 1019.30 1019.18 1019.06 1018.94 1018.78 1018.62 1018.50 1018.38 1018.26 1018.18 1018.06 1017.90 1017.78 1017.66 1017.50 1017.34 1017.22 1017.06 1016.94 1016.78 1016.66 1016.54 1016.46 1016.38 1016.30 1016.22 1016.18 1016.18 1016.14 1016.18 1016.22 1016.22 1016.14 1016.06 1016.02 1015.94 1015.78 1015.70 1015.70 1015.66 1015.54 1015.46 1015.34 1015.26 1015.26 1015.30 1015.34 1015.34 1015.38 1015.38 1015.38 1015.42
1020.78 1020.70 1020.66 1020.62 1020.54 1020.50 1020.46 1020.34 1020.30 1020.18 1020.06 1019.86 1019.74 1019.62 1019.50 1019.38 1019.30 1019.22 1019.06 1018.90 1018.78 1018.62 1018.50 1018.34 1018.22 1018.14 1018.06 1017.94 1017.82 1017.66 1017.54 1017.42 1017.30 1017.14 1016.98 1016.82 1016.70 1016.54 1016.42 1016.34 1016.22 1016.10 1016.02 1015.98 1015.94 1015.90 1015.90 1015.94 1015.90 1015.78 1015.70 1015.66 1015.54 1015.42 1015.34 1015.30 1015.34 1015.26 1015.18 1015.06 1014.94 1014.86 1014.82 1014.86 1014.94 1014.98 1014.98 1015.02 1015.10
1020.66 1020.62 1020.58 1020.50 1020.42 1020.38 1020.34 1020.26 1020.18 1020.06 1019.90 1019.74 1019.58 1019.50 1019.38 1019.30 1019.18 1019.06 1018.94 1018.78 1018.66 1018.54 1018.38 1018.22 1018.10 1018.02 1017.90 1017.78 1017.66 1017.54 1017.42 1017.30 1017.18 1017.02 1016.86 1016.70 1016.58 1016.46 1016.34 1016.22 1016.14 1015.98 1015.86 1015.78 1015.70 1015.66 1015.66 1015.66 1015.54 1015.42 1015.34 1015.30 1015.18 1015.06 1015.02 1015.02 1015.02 1014.98 1014.90 1014.78 1014.66 1014.54 1014.46 1014.46 1014.50 1014.50 1014.54 1014.58 1014.62
1020.62 1020.54 1020.50 1020.42 1020.34 1020.30 1020.22 1020.14 1020.02 1019.90 1019.78 1019.62 1019.46 1019.34 1019.22 1019.06 1019.02 1018.90 1018.78 1018.66 1018.54 1018.38 1018.22 1018.10 1018.02 1017.90 1017.74 1017.62 1017.50 1017.38 1017.26 1017.18 1017.02 1016.86 1016.70 1016.58 1016.46 1016.34 1016.22 1016.14 1016.02 1015.90 1015.78 1015.66 1015.58 1015.50 1015.46 1015.34 1015.22 1015.14 1015.06 1014.94 1014.90 1014.82 1014.78 1014.78 1014.74 1014.62 1014.58 1014.50 1014.34 1014.30 1014.22 1014.06 1014.06 1014.06 1014.06 1014.06 1014.10
1020.50 1020.46 1020.38 1020.34 1020.26 1020.22 1020.10 1019.98 1019.86 1019.74 1019.58 1019.42 1019.30 1019.18 1019.02 1018.90 1018.78 1018.70 1018.62 1018.50 1018.34 1018.18 1018.06 1017.98 1017.90 1017.78 1017.62 1017.50 1017.34 1017.22 1017.06 1016.98 1016.86 1016.74 1016.58 1016.42 1016.30 1016.18 1016.06 1015.98 1015.90 1015.78 1015.66 1015.54 1015.50 1015.42 1015.34 1015.18 1015.06 1014.94 1014.78 1014.66 1014.62 1014.62 1014.50 1014.46 1014.46 1014.38 1014.26 1014.18 1014.10 1014.06 1013.94 1013.82 1013.78 1013.78 1013.70 1013.66 1013.66
1020.42 1020.34 1020.26 1020.22 1020.14 1020.06 1020.02 1019.90 1019.74 1019.58 1019.46 1019.30 1019.14 1019.02 1018.90 1018.70 1018.62 1018.50 1018.42 1018.34 1018.18 1017.98 1017.86 1017.78 1017.74 1017.66 1017.50 1017.30 1017.18 1017.06 1016.94 1016.78 1016.66 1016.54 1016.38 1016.22 1016.10 1015.98 1015.90 1015.78 1015.70 1015.62 1015.50 1015.38 1015.38 1015.30 1015.18 1015.02 1014.94 1014.78 1014.66 1014.54 1014.50 1014.38 1014.30 1014.22 1014.22 1014.14 1014.02 1013.94 1013.82 1013.78 1013.66 1013.58 1013.50 1013.50 1013.46 1013.38 1013.34
1020.34 1020.22 1020.18 1020.06 1020.02 1019.94 1019.86 1019.74 1019.62 1019.46 1019.30 1019.14 1019.02 1018.86 1018.74 1018.58 1018.46 1018.34 1018.26 1018.14 1018.02 1017.86 1017.78 1017.66 1017.50 1017.42 1017.30 1017.14 1017.02 1016.86 1016.74 1016.62 1016.46 1016.34 1016.22 1016.02 1015.94 1015.78 1015.70 1015.54 1015.46 1015.38 1015.34 1015.22 1015.18 1015.10 1014.98 1014.86 1014.74 1014.62 1014.54 1014.46 1014.34 1014.22 1014.18 1014.14 1014.02 1013.94 1013.82 1013.70 1013.58 1013.42 1013.30 1013.22 1013.22 1013.26 1013.30 1013.22 1013.14
1020.18 1020.06 1020.02 1019.94 1019.90 1019.82 1019.74 1019.62 1019.50 1019.30 1019.14 1018.98 1018.82 1018.74 1018.62 1018.50 1018.34 1018.22 1018.14 1018.06 1017.94 1017.78 1017.66 1017.50 1017.34 1017.22 1017.10 1017.02 1016.86 1016.70 1016.54 1016.42 1016.26 1016.10 1015.94 1015.78 1015.66 1015.58 1015.46 1015.34 1015.22 1015.18 1015.10 1015.02 1014.94 1014.86 1014.78 1014.66 1014.54 1014.50 1014.38 1014.30 1014.18 1014.06 1014.02 1013.98 1013.86 1013.78 1013.66 1013.54 1013.38 1013.22 1013.10 1013.02 1013.02 1013.06 1013.06 1013.02 1012.94
1020.06 1019.94 1019.86 1019.82 1019.78 1019.66 1019.58 1019.50 1019.34 1019.18 1018.98 1018.82 1018.74 1018.62 1018.50 1018.34 1018.22 1018.10 1018.06 1017.94 1017.78 1017.66 1017.50 1017.34 1017.18 1017.06 1016.94 1016.78 1016.66 1016.50 1016.34 1016.18 1016.02 1015.86 1015.66 1015.50 1015.38 1015.30 1015.18 1015.06 1014.98 1014.90 1014.82 1014.78 1014.70 1014.62 1014.50 1014.46 1014.34 1014.30 1014.22 1014.10 1013.98 1013.90 1013.82 1013.74 1013.66 1013.54 1013.46 1013.34 1013.22 1013.06 1012.98 1012.86 1012.86 1012.82 1012.78 1012.74 1012.70
1019.94 1019.82 1019.78 1019.70 1019.62 1019.54 1019.46 1019.34 1019.22 1019.06 1018.94 1018.78 1018.66 1018.58 1018.46 1018.34 1018.18 1018.06 1017.94 1017.82 1017.70 1017.50 1017.34 1017.22 1017.06 1016.94 1016.78 1016.58 1016.46 1016.34 1016.14 1015.94 1015.78 1015.66 1015.46 1015.30 1015.18 1015.06 1014.94 1014.82 1014.74 1014.62 1014.58 1014.54 1014.50 1014.38 1014.30 1014.22 1014.10 1014.06 1013.98 1013.94 1013.78 1013.70 1013.62 1013.50 1013.42 1013.34 1013.22 1013.06 1012.98 1012.90 1012.78 1012.66 1012.62 1012.50 1012.42 1012.38 1012.34
1019.82 1019.74 1019.66 1019.62 1019.50 1019.42 1019.34 1019.26 1019.18 1019.02 1018.90 1018.78 1018.66 1018.54 1018.42 1018.30 1018.18 1018.02 1017.90 1017.78 1017.62 1017.42 1017.22 1017.06 1016.94 1016.78 1016.62 1016.42 1016.26 1016.14 1015.98 1015.78 1015.62 1015.46 1015.30 1015.14 1015.02 1014.90 1014.78 1014.62 1014.50 1014.38 1014.34 1014.34 1014.26 1014.18 1014.06 1013.94 1013.90 1013.78 1013.74 1013.66 1013.50 1013.42 1013.34 1013.30 1013.22 1013.06 1012.98 1012.86 1012.78 1012.62 1012.54 1012.42 1012.34 1012.22 1012.14 1012.06 1011.94
1019.78 1019.66 1019.58 1019.50 1019.42 1019.34 1019.30 1019.22 1019.06 1018.94 1018.82 1018.70 1018.62 1018.50 1018.34 1018.22 1018.10 1017.94 1017.78 1017.66 1017.50 1017.34 1017.14 1016.94 1016.74 1016.58 1016.42 1016.26 1016.06 1015.94 1015.78 1015.66 1015.42 1015.22 1015.10 1014.98 1014.82 1014.70 1014.54 1014.42 1014.26 1014.18 1014.10 1014.14 1014.06 1013.94 1013.82 1013.70 1013.62 1013.54 1013.46 1013.34 1013.22 1013.18 1013.10 1013.02 1012.94 1012.82 1012.70 1012.62 1012.50 1012.34 1012.22 1012.14 1012.06 1011.98 1011.90 1011.78 1011.70
1019.66 1019.62 1019.50 1019.42 1019.38 1019.30 1019.22 1019.14 1019.02 1018.90 1018.74 1018.62 1018.50 1018.38 1018.26 1018.14 1017.98 1017.82 1017.62 1017.46 1017.30 1017.18 1017.02 1016.82 1016.62 1016.38 1016.22 1016.06 1015.90 1015.74 1015.58 1015.46 1015.22 1015.06 1014.86 1014.74 1014.62 1014.46 1014.30 1014.18 1014.02 1013.90 1013.82 1013.86 1013.78 1013.66 1013.54 1013.46 1013.34 1013.26 1013.18 1013.10 1013.06 1012.94 1012.86 1012.78 1012.66 1012.54 1012.42 1012.34 1012.22 1012.06 1011.94 1011.82 1011.78 1011.70 1011.66 1011.62 1011.50
1019.66 1019.58 1019.50 1019.42 1019.34 1019.26 1019.14 1019.06 1018.94 1018.78 1018.66 1018.54 1018.38 1018.26 1018.14 1017.98 1017.82 1017.66 1017.50 1017.30 1017.18 1017.02 1016.86 1016.66 1016.46 1016.22 1016.06 1015.86 1015.70 1015.50 1015.34 1015.22 1015.06 1014.82 1014.62 1014.50 1014.34 1014.22 1014.06 1013.94 1013.74 1013.54 1013.46 1013.50 1013.42 1013.34 1013.26 1013.18 1013.06 1013.02 1012.94 1012.94 1012.90 1012.78 1012.70 1012.58 1012.42 1012.30 1012.14 1012.02 1011.86 1011.70 1011.58 1011.50 1011.42 1011.38 1011.34 1011.26 1011.22
1019.62 1019.54 1019.50 1019.42 1019.34 1019.22 1019.06 1018.94 1018.82 1018.70 1018.58 1018.42 1018.26 1018.10 1017.98 1017.78 1017.66 1017.50 1017.34 1017.18 1017.02 1016.86 1016.66 1016.50 1016.26 1016.06 1015.94 1015.74 1015.54 1015.34 1015.14 1014.98 1014.82 1014.62 1014.42 1014.22 1014.06 1013.90 1013.78 1013.66 1013.46 1013.26 1013.14 1013.14 1013.10 1013.06 1012.98 1012.94 1012.86 1012.82 1012.78 1012.74 1012.62 1012.58 1012.50 1012.38 1012.22 1012.02 1011.82 1011.66 1011.46 1011.34 1011.22 1011.10 1011.06 1011.02 1010.94 1010.90 1010.86
1019.66 1019.54 1019.50 1019.34 1019.26 1019.14 1019.02 1018.86 1018.74 1018.62 1018.46 1018.30 1018.14 1017.94 1017.78 1017.66 1017.50 1017.34 1017.18 1017.02 1016.86 1016.66 1016.50 1016.34 1016.14 1015.94 1015.78 1015.58 1015.42 1015.22 1015.02 1014.78 1014.58 1014.34 1014.18 1014.02 1013.82 1013.66 1013.50 1013.34 1013.22 1013.06 1012.90 1012.78 1012.78 1012.78 1012.78 1012.74 1012.66 1012.62 1012.62 1012.50 1012.38 1012.30 1012.22 1012.06 1011.94 1011.70 1011.50 1011.26 1011.06 1010.94 1010.86 1010.74 1010.70 1010.62 1010.54 1010.50 1010.50
1019.66 1019.54 1019.46 1019.34 1019.22 1019.06 1018.94 1018.78 1018.62 1018.50 1018.34 1018.14 1017.98 1017.82 1017.66 1017.50 1017.34 1017.18 1017.02 1016.90 1016.70 1016.50 1016.34 1016.18 1015.98 1015.78 1015.62 1015.42 1015.22 1015.06 1014.82 1014.54 1014.30 1014.06 1013.90 1013.74 1013.54 1013.34 1013.22 1013.06 1012.94 1012.78 1012.58 1012.50 1012.42 1012.50 1012.50 1012.42 1012.34 1012.22 1012.22 1012.14 1012.06 1011.94 1011.82 1011.66 1011.50 1011.30 1011.06 1010.86 1010.66 1010.50 1010.38 1010.34 1010.30 1010.22 1010.18 1010.14 1010.06
1019.62 1019.50 1019.38 1019.26 1019.14 1018.98 1018.82 1018.70 1018.50 1018.34 1018.22 1018.02 1017.86 1017.70 1017.54 1017.38 1017.22 1017.06 1016.86 1016.70 1016.54 1016.34 1016.22 1016.06 1015.86 1015.66 1015.46 1015.22 1015.02 1014.78 1014.58 1014.34 1014.10 1013.86 1013.66 1013.46 1013.34 1013.18 1013.02 1012.82 1012.62 1012.50 1012.34 1012.26 1012.18 1012.10 1012.10 1012.06 1011.94 1011.82 1011.74 1011.66 1011.58 1011.46 1011.26 1011.06 1010.94 1010.78 1010.62 1010.42 1010.30 1010.10 1009.94 1009.78 1009.74 1009.70 1009.70 1009.66 1009.66
1019.54 1019.46 1019.34 1019.18 1019.02 1018.86 1018.74 1018.54 1018.38 1018.22 1018.06 1017.90 1017.74 1017.58 1017.38 1017.22 1017.06 1016.90 1016.70 1016.50 1016.34 1016.22 1016.06 1015.90 1015.66 1015.46 1015.22 1015.02 1014.78 1014.54 1014.34 1014.10 1013.94 1013.70 1013.50 1013.30 1013.10 1012.94 1012.78 1012.66 1012.46 1012.34 1012.22 1012.10 1011.98 1011.90 1011.82 1011.74 1011.62 1011.50 1011.42 1011.34 1011.18 1010.94 1010.74 1010.50 1010.34 1010.22 1010.10 1009.98 1009.90 1009.74 1009.54 1009.34 1009.18 1009.10 1009.10 1009.10 1009.10
1019.46 1019.34 1019.22 1019.06 1018.94 1018.78 1018.58 1018.38 1018.26 1018.06 1017.90 1017.70 1017.54 1017.34 1017.22 1017.06 1016.94 1016.74 1016.54 1016.34 1016.18 1016.02 1015.90 1015.66 1015.50 1015.22 1015.02 1014.78 1014.54 1014.34 1014.10 1013.90 1013.74 1013.54 1013.34 1013.18 1012.94 1012.78 1012.58 1012.42 1012.22 1012.10 1012.06 1011.94 1011.78 1011.66 1011.54 1011.42 1011.26 1011.18 1011.10 1011.10 1010.90 1010.66 1010.42 1010.18 1009.94 1009.78 1009.66 1009.46 1009.34 1009.22 1009.10 1008.94 1008.78 1008.62 1008.58 1008.54 1008.54
1019.34 1019.22 1019.06 1018.94 1018.78 1018.58 1018.42 1018.26 1018.10 1017.94 1017.70 1017.50 1017.34 1017.18 1017.06 1016.94 1016.74 1016.54 1016.34 1016.18 1016.02 1015.86 1015.66 1015.46 1015.26 1015.06 1014.82 1014.54 1014.30 1014.10 1013.94 1013.74 1013.58 1013.38 1013.18 1012.98 1012.78 1012.58 1012.34 1012.14 1011.94 1011.82 1011.74 1011.62 1011.50 1011.34 1011.22 1011.06 1010.94 1010.82 1010.78 1010.70 1010.54 1010.34 1010.14 1009.90 1009.62 1009.38 1009.18 1008.98 1008.78 1008.66 1008.50 1008.42 1008.34 1008.22 1008.10 1008.06 1008.06
1019.26 1019.10 1018.94 1018.78 1018.62 1018.42 1018.22 1018.06 1017.94 1017.70 1017.50 1017.34 1017.22 1017.02 1016.86 1016.74 1016.54 1016.34 1016.18 1016.02 1015.82 1015.66 1015.46 1015.22 1015.06 1014.86 1014.62 1014.38 1014.14 1013.94 1013.78 1013.54 1013.38 1013.18 1012.94 1012.74 1012.54 1012.34 1012.10 1011.94 1011.70 1011.50 1011.38 1011.26 1011.18 1011.06 1010.94 1010.78 1010.66 1010.58 1010.50 1010.42 1010.30 1010.06 1009.86 1009.62 1009.34 1009.06 1008.78 1008.58 1008.34 1008.18 1008.06 1007.94 1007.82 1007.74 1007.66 1007.66 1007.58
1019.14 1019.02 1018.86 1018.62 1018.46 1018.22 1018.06 1017.90 1017.70 1017.54 1017.38 1017.22 1017.02 1016.86 1016.70 1016.50 1016.34 1016.18 1015.98 1015.82 1015.66 1015.46 1015.30 1015.10 1014.86 1014.62 1014.42 1014.22 1013.98 1013.78 1013.50 1013.30 1013.10 1012.94 1012.74 1012.50 1012.26 1012.06 1011.86 1011.66 1011.50 1011.30 1011.18 1011.06 1010.94 1010.82 1010.70 1010.58 1010.46 1010.34 1010.22 1010.14 1009.98 1009.82 1009.62 1009.34 1009.06 1008.82 1008.50 1008.26 1008.02 1007.82 1007.70 1007.54 1007.46 1007.34 1007.30 1007.22 1007.22
1018.98 1018.86 1018.70 1018.50 1018.26 1018.06 1017.90 1017.70 1017.58 1017.42 1017.22 1017.02 1016.86 1016.66 1016.50 1016.30 1016.14 1015.94 1015.78 1015.62 1015.42 1015.22 1015.06 1014.90 1014.66 1014.42 1014.18 1013.94 1013.78 1013.50 1013.22 1012.98 1012.86 1012.66 1012.50 1012.30 1012.06 1011.82 1011.62 1011.38 1011.22 1011.06 1010.94 1010.82 1010.74 1010.62 1010.50 1010.30 1010.18 1010.06 1009.94 1009.82 1009.70 1009.54 1009.30 1009.02 1008.74 1008.50 1008.22 1007.94 1007.66 1007.50 1007.30 1007.14 1007.02 1006.94 1006.90 1006.90 1006.86
1018.78 1018.62 1018.50 1018.30 1018.06 1017.90 1017.70 1017.54 1017.38 1017.22 1017.06 1016.86 1016.66 1016.50 1016.30 1016.10 1015.94 1015.78 1015.62 1015.42 1015.22 1015.02 1014.78 1014.62 1014.34 1014.10 1013.86 1013.66 1013.46 1013.22 1012.98 1012.78 1012.62 1012.42 1012.22 1012.06 1011.90 1011.66 1011.34 1011.14 1010.94 1010.78 1010.66 1010.54 1010.46 1010.34 1010.22 1010.06 1009.94 1009.78 1009.66 1009.58 1009.42 1009.22 1008.98 1008.74 1008.50 1008.22 1007.94 1007.66 1007.42 1007.22 1007.06 1006.94 1006.78 1006.62 1006.50 1006.50 1006.46
1018.58 1018.46 1018.30 1018.10 1017.90 1017.70 1017.50 1017.38 1017.22 1017.02 1016.86 1016.70 1016.50 1016.30 1016.10 1015.94 1015.78 1015.62 1015.46 1015.30 1015.06 1014.82 1014.54 1014.34 1014.06 1013.82 1013.58 1013.34 1013.14 1012.94 1012.74 1012.58 1012.42 1012.22 1012.02 1011.86 1011.66 1011.38 1011.10 1010.94 1010.70 1010.54 1010.38 1010.30 1010.22 1010.06 1009.94 1009.82 1009.66 1009.50 1009.42 1009.30 1009.14 1008.90 1008.62 1008.38 1008.18 1007.94 1007.62 1007.34 1007.10 1006.94 1006.82 1006.70 1006.54 1006.38 1006.22 1006.14 1006.10
1018.38 1018.22 1018.06 1017.86 1017.66 1017.50 1017.34 1017.18 1017.02 1016.86 1016.66 1016.50 1016.26 1016.10 1015.94 1015.78 1015.58 1015.38 1015.22 1015.02 1014.78 1014.58 1014.34 1014.06 1013.86 1013.62 1013.38 1013.18 1012.94 1012.74 1012.50 1012.30 1012.18 1011.98 1011.82 1011.66 1011.38 1011.14 1010.90 1010.66 1010.50 1010.34 1010.18 1010.06 1009.94 1009.82 1009.70 1009.58 1009.46 1009.30 1009.14 1009.02 1008.82 1008.62 1008.34 1008.10 1007.86 1007.62 1007.34 1007.06 1006.86 1006.70 1006.58 1006.42 1006.30 1006.18 1006.06 1005.98 1005.94
1018.18 1017.98 1017.78 1017.66 1017.46 1017.30 1017.14 1016.98 1016.82 1016.62 1016.46 1016.26 1016.06 1015.90 1015.78 1015.62 1015.42 1015.18 1014.94 1014.74 1014.50 1014.30 1014.06 1013.82 1013.62 1013.38 1013.22 1012.98 1012.78 1012.58 1012.34 1012.06 1011.90 1011.74 1011.58 1011.42 1011.22 1010.94 1010.62 1010.38 1010.22 1010.06 1009.94 1009.82 1009.70 1009.62 1009.50 1009.34 1009.22 1009.06 1008.94 1008.78 1008.54 1008.34 1008.06 1007.82 1007.58 1007.34 1007.10 1006.94 1006.66 1006.50 1006.30 1006.18 1006.02 1005.94 1005.82 1005.78 1005.66
1017.98 1017.78 1017.62 1017.42 1017.26 1017.10 1016.94 1016.78 1016.62 1016.46 1016.26 1016.06 1015.90 1015.70 1015.50 1015.34 1015.18 1014.98 1014.78 1014.54 1014.34 1014.06 1013.78 1013.62 1013.34 1013.14 1012.90 1012.70 1012.50 1012.34 1012.18 1011.94 1011.70 1011.50 1011.34 1011.22 1011.02 1010.74 1010.38 1010.06 1009.94 1009.78 1009.70 1009.66 1009.50 1009.38 1009.30 1009.14 1008.98 1008.82 1008.70 1008.50 1008.30 1008.06 1007.78 1007.62 1007.38 1007.14 1006.94 1006.74 1006.50 1006.34 1006.18 1006.02 1005.82 1005.70 1005.62 1005.50 1005.42
1017.78 1017.66 1017.46 1017.22 1017.06 1016.94 1016.78 1016.62 1016.46 1016.26 1016.06 1015.90 1015.70 1015.50 1015.34 1015.14 1014.94 1014.74 1014.58 1014.38 1014.10 1013.78 1013.54 1013.34 1013.14 1012.94 1012.66 1012.50 1012.30 1012.10 1011.94 1011.82 1011.62 1011.34 1011.10 1010.94 1010.78 1010.54 1010.22 1009.86 1009.66 1009.50 1009.46 1009.42 1009.30 1009.22 1009.06 1008.94 1008.78 1008.62 1008.50 1008.30 1008.06 1007.82 1007.62 1007.42 1007.22 1006.98 1006.78 1006.58 1006.38 1006.22 1006.06 1005.86 1005.66 1005.50 1005.34 1005.22 1005.18
1017.66 1017.50 1017.34 1017.10 1016.94 1016.78 1016.62 1016.46 1016.30 1016.06 1015.90 1015.66 1015.50 1015.34 1015.18 1014.98 1014.74 1014.50 1014.34 1014.22 1013.94 1013.62 1013.30 1013.10 1012.90 1012.66 1012.50 1012.30 1012.10 1011.90 1011.74 1011.66 1011.46 1011.22 1010.94 1010.66 1010.54 1010.34 1010.10 1009.74 1009.42 1009.30 1009.26 1009.22 1009.14 1009.02 1008.90 1008.70 1008.54 1008.42 1008.30 1008.10 1007.86 1007.62 1007.38 1007.18 1006.98 1006.78 1006.54 1006.34 1006.10 1005.94 1005.78 1005.66 1005.46 1005.22 1005.02 1004.94 1004.82
1017.50 1017.34 1017.18 1016.98 1016.78 1016.62 1016.42 1016.22 1016.06 1015.94 1015.70 1015.50 1015.30 1015.10 1014.94 1014.78 1014.54 1014.34 1014.14 1013.98 1013.78 1013.50 1013.14 1012.86 1012.62 1012.46 1012.30 1012.10 1011.90 1011.66 1011.42 1011.30 1011.22 1011.02 1010.78 1010.50 1010.34 1010.18 1009.98 1009.66 1009.34 1009.14 1009.06 1009.06 1008.94 1008.78 1008.62 1008.50 1008.30 1008.14 1008.02 1007.82 1007.62 1007.38 1007.14 1006.94 1006.66 1006.42 1006.22 1005.98 1005.78 1005.54 1005.38 1005.26 1005.06 1004.90 1004.66 1004.50 1004.38
1017.34 1017.18 1017.02 1016.82 1016.62 1016.46 1016.22 1016.06 1015.86 1015.70 1015.54 1015.34 1015.10 1014.94 1014.74 1014.58 1014.34 1014.14 1013.94 1013.78 1013.54 1013.26 1012.98 1012.66 1012.42 1012.22 1012.06 1011.94 1011.70 1011.42 1011.14 1010.94 1010.86 1010.78 1010.62 1010.34 1010.14 1009.94 1009.78 1009.54 1009.22 1008.98 1008.82 1008.78 1008.70 1008.58 1008.42 1008.22 1008.06 1007.86 1007.70 1007.54 1007.34 1007.10 1006.86 1006.62 1006.34 1006.06 1005.86 1005.66 1005.46 1005.26 1005.06 1004.86 1004.70 1004.58 1004.38 1004.18 1004.06
1017.14 1016.98 1016.82 1016.62 1016.50 1016.30 1016.06 1015.86 1015.66 1015.50 1015.34 1015.22 1014.98 1014.78 1014.54 1014.34 1014.14 1013.94 1013.70 1013.50 1013.26 1013.06 1012.78 1012.54 1012.22 1012.02 1011.90 1011.74 1011.54 1011.26 1010.94 1010.66 1010.50 1010.46 1010.34 1010.14 1009.94 1009.78 1009.58 1009.34 1009.10 1008.86 1008.66 1008.58 1008.50 1008.34 1008.18 1007.98 1007.78 1007.58 1007.42 1007.22 1007.06 1006.78 1006.58 1006.34 1006.06 1005.78 1005.54 1005.34 1005.18 1004.98 1004.74 1004.50 1004.34 1004.22 1004.10 1003.94 1003.82
Wind_Speed
4 4 4 4 4 4 4 5 5 5 6 6 7 7 7 7 7 7 7 7 7 7 7 7 7 8 9 11 12 12 12 11 11 12 12 13 13 13 13 13 13 13 13 13 13 12 12 12 11 9 8 8 9 10 10 9 10 11 12 12 11 12 13 14 15 16 17 17 14
4 4 4 4 4 4 4 4 5 5 5 5 6 6 7 7 7 7 7 8 7 7 7 7 8 10 11 12 12 12 12 12 12 12 12 13 13 13 13 13 13 13 14 14 13 12 11 11 11 9 8 8 9 10 10 10 10 11 13 14 12 11 11 13 14 15 16 16 15
4 4 4 4 4 4 4 4 5 6 6 6 6 6 6 6 6 6 7 7 8 8 8 7 8 10 12 13 12 12 11 11 12 12 12 12 13 13 13 13 14 14 14 13 13 12 11 11 10 9 8 8 9 10 10 11 11 12 13 14 12 10 10 10 12 12 12 12 13
5 4 4 5 5 6 5 5 6 6 6 5 6 6 6 5 5 6 6 8 8 8 8 8 9 9 10 11 12 12 12 12 13 13 13 12 13 14 14 14 14 14 14 13 13 13 13 12 10 9 9 10 11 11 10 9 11 11 11 11 10 10 10 10 10 10 10 10 12
6 5 5 5 6 6 6 6 6 7 6 5 5 5 5 5 5 6 6 7 7 7 8 9 9 9 10 11 12 13 13 14 13 13 12 13 13 14 14 14 14 14 13 13 14 14 14 13 10 9 9 10 10 10 10 11 11 11 10 9 9 9 10 10 9 9 9 9 10
6 6 6 5 6 6 6 6 7 7 6 6 6 6 6 5 5 6 6 7 7 9 10 10 10 10 10 11 12 12 13 12 12 12 12 13 13 13 14 14 14 13 13 13 13 14 14 13 10 9 9 9 10 11 12 13 12 11 11 10 9 9 9 10 9 9 9 11 11
7 7 7 6 6 6 6 6 6 7 6 6 7 8 8 7 7 8 8 8 8 8 8 8 8 9 9 10 11 11 11 11 11 12 13 12 13 13 13 14 14 14 13 13 13 13 13 12 10 9 9 9 9 11 13 13 13 12 12 11 10 9 10 11 10 9 11 13 15
6 7 7 7 7 7 7 7 7 7 6 6 7 8 9 9 9 10 9 9 8 8 7 7 8 9 10 10 11 11 11 12 12 12 12 12 13 13 14 14 14 14 14 13 13 13 12 11 9 9 9 9 9 10 13 15 15 14 14 13 11 10 10 10 9 10 12 14 15
6 6 6 7 6 7 7 7 7 7 7 8 8 9 10 10 10 10 9 8 8 8 8 8 9 10 11 11 11 11 11 11 11 12 12 12 13 13 13 13 13 13 13 13 13 13 13 11 9 9 10 9 10 10 12 14 15 16 15 14 13 12 12 11 12 12 13 14 15
6 7 7 7 7 7 7 8 8 8 8 9 9 10 10 9 9 9 8 7 8 8 9 9 9 10 11 11 11 11 10 10 10 11 12 12 12 13 13 12 13 13 13 12 12 12 12 11 11 11 11 11 12 13 14 14 15 16 15 13 13 14 15 14 14 15 15 15 15
7 7 7 7 7 7 7 8 7 8 8 8 9 10 9 9 9 9 8 8 9 10 10 10 10 10 11 10 10 10 10 9 10 10 11 12 12 12 13 13 13 13 13 13 12 11 10 10 11 13 14 13 14 14 14 15 16 17 16 14 14 16 17 17 16 15 15 15 16
7 7 7 7 7 7 7 7 7 7 8 9 9 9 9 9 9 9 9 9 10 11 11 10 10 10 10 9 9 10 10 10 10 11 11 12 12 13 13 13 14 14 14 14 12 11 10 10 12 14 15 16 13 13 13 15 16 16 17 17 16 16 17 17 17 15 14 14 15
7 7 7 7 7 7 7 7 7 7 8 9 9 9 9 9 9 10 10 10 11 10 10 10 10 10 10 10 9 10 10 10 11 11 11 12 12 13 13 13 13 14 14 13 12 11 11 12 13 14 15 16 14 13 13 15 15 16 17 18 18 18 17 17 16 15 15 15 15
8 8 8 7 8 7 7 7 7 7 8 9 9 9 9 9 9 9 9 10 10 10 10 10 9 9 9 10 10 11 11 11 12 12 13 13 13 13 13 13 13 13 13 12 12 12 13 13 14 15 15 16 16 15 15 15 15 16 17 18 19 19 18 17 16 15 15 16 16
8 8 8 8 8 8 7 8 7 7 8 9 9 9 9 9 9 9 9 10 10 10 10 9 9 9 10 11 11 12 12 12 12 13 13 13 13 13 13 13 13 13 12 12 12 13 13 14 14 15 15 16 17 17 16 16 16 16 16 17 18 18 18 17 16 16 16 16 17
9 9 9 8 8 8 8 8 7 7 8 9 9 9 9 9 9 9 9 10 10 10 9 10 10 10 10 11 11 12 12 12 12 13 13 13 13 13 13 13 14 13 13 12 13 13 13 14 14 14 15 15 16 17 17 17 17 16 16 16 17 17 17 17 17 17 17 18 18
9 9 9 9 9 9 9 9 8 8 9 10 10 10 10 9 9 9 10 10 10 10 11 12 11 11 11 11 11 11 11 12 12 12 13 13 13 14 14 14 14 13 13 12 13 14 14 14 14 14 14 15 15 16 16 16 16 16 16 16 16 16 16 17 18 19 19 19 19
10 10 10 10 10 10 10 10 10 10 10 11 11 10 10 10 10 10 10 11 11 12 13 13 12 12 12 12 11 11 11 11 12 12 13 13 14 14 14 15 15 14 13 11 12 14 15 15 15 15 14 14 14 14 14 14 14 15 16 17 16 16 16 18 19 19 19 19 20
11 10 10 10 11 11 11 11 11 11 11 11 11 11 11 11 12 12 12 12 12 13 13 14 13 13 13 13 13 12 11 12 13 14 14 14 14 14 15 15 15 15 13 10 12 14 15 16 16 16 15 14 13 12 13 13 14 15 16 17 16 16 16 17 18 18 18 18 18
11 11 11 11 11 11 11 11 12 12 12 11 12 12 12 13 12 13 13 13 13 13 13 14 14 14 14 14 14 14 13 12 13 14 15 14 14 15 15 15 16 15 14 10 11 13 15 15 16 15 14 13 12 12 13 14 15 15 16 16 16 16 17 17 17 17 17 17 17
11 11 11 11 11 12 12 12 12 12 12 12 12 13 13 13 13 13 13 14 14 14 14 14 14 14 14 14 15 15 14 12 13 14 15 15 15 15 15 15 16 15 14 10 11 12 14 15 15 14 12 11 11 12 13 14 15 16 16 15 16 16 16 16 16 16 17 17 18
11 11 11 12 12 12 12 12 12 12 12 13 13 13 13 13 13 13 14 14 14 14 14 14 15 15 15 15 15 15 15 13 14 14 15 15 15 15 15 15 15 15 14 11 10 11 12 13 13 12 11 11 12 12 13 14 16 17 17 18 18 17 16 15 16 16 16 17 17
12 11 11 11 12 12 12 12 12 13 13 13 13 13 14 14 14 14 14 14 14 14 14 14 14 15 15 15 15 16 16 15 15 15 15 15 15 15 15 15 15 15 14 12 10 9 9 10 10 10 11 11 12 13 14 15 16 16 17 19 18 17 15 15 15 15 15 16 16
12 12 11 10 11 12 13 13 13 13 13 13 14 14 14 14 14 14 14 14 14 14 14 13 13 14 15 16 16 16 16 17 17 17 17 16 16 16 16 15 14 14 13 11 9 9 9 9 9 9 9 10 11 12 14 15 16 16 17 18 18 17 16 15 15 15 15 16 16
12 12 12 11 12 13 13 13 13 13 13 14 14 14 14 14 14 14 14 15 15 15 15 15 15 15 15 15 16 16 16 17 17 17 17 17 17 16 16 14 14 12 10 9 12 15 16 15 13 10 9 8 10 12 13 15 16 16 16 16 16 16 16 17 17 16 16 16 15
12 12 12 12 13 13 13 13 13 14 14 14 14 14 14 14 14 14 15 15 15 15 15 15 15 15 14 14 15 16 16 15 16 16 17 17 17 17 16 14 13 10 9 9 14 18 20 21 20 17 13 10 11 12 14 14 15 15 16 16 16 16 16 16 17 18 17 15 15
12 12 12 12 13 13 13 13 13 14 14 14 14 14 14 14 14 14 15 15 15 15 15 14 14 14 14 14 15 16 16 15 16 16 17 17 18 18 17 16 13 9 8 12 17 20 22 22 23 22 18 12 12 12 14 14 15 16 16 16 16 16 15 16 17 18 17 16 15
12 12 13 13 13 13 14 14 14 14 14 14 15 15 15 15 15 15 15 15 15 15 14 13 13 12 12 12 14 15 17 17 16 16 16 17 18 18 18 16 13 11 11 15 19 22 23 23 24 24 22 18 14 13 14 15 16 16 16 15 15 16 16 16 16 16 16 16 15
13 13 13 13 14 14 14 14 14 14 15 15 15 15 15 15 15 15 16 16 16 15 14 12 11 11 11 12 14 16 17 18 17 16 16 17 18 18 18 17 16 16 18 21 23 24 24 24 24 25 24 23 17 13 12 13 14 15 15 14 15 15 15 15 15 15 15 15 15
12 12 12 13 14 14 14 14 14 15 15 14 15 15 15 15 16 16 16 16 16 15 14 12 12 13 14 15 16 16 16 16 16 16 16 17 18 18 18 18 17 17 18 21 23 24 25 25 25 25 25 24 20 16 13 12 13 14 14 14 15 16 17 16 16 17 16 15 15
12 12 12 13 14 14 14 14 15 15 15 14 15 15 16 16 16 16 16 16 15 15 15 15 16 17 17 17 17 17 17 17 16 16 16 17 18 19 19 20 19 18 18 21 23 24 25 25 25 25 25 25 21 17 14 14 15 15 15 15 17 18 18 17 17 17 17 17 16
12 12 13 14 14 15 15 15 15 15 15 16 16 16 16 16 16 16 16 15 16 16 17 17 17 18 18 18 18 18 18 17 17 17 17 17 18 19 20 20 20 19 19 22 23 24 25 25 25 25 25 25 22 19 17 16 17 17 17 18 19 19 19 16 16 17 18 19 17
12 12 13 14 14 15 15 15 15 15 16 16 16 17 17 17 16 16 16 15 15 16 17 17 18 18 18 18 18 18 18 18 18 18 18 19 19 20 20 19 18 18 20 22 24 24 25 25 26 26 26 26 22 20 18 17 16 15 16 17 18 19 19 19 18 18 18 18 17
13 13 13 14 14 15 15 15 15 16 16 17 17 17 17 17 17 16 16 15 15 15 16 16 17 17 17 17 18 18 18 17 17 18 19 19 20 20 20 18 15 16 20 23 25 25 26 26 26 26 27 26 22 19 17 18 17 16 16 18 18 18 18 17 16 16 15 15 14
13 14 14 15 15 15 15 16 16 16 17 17 17 17 17 17 17 17 17 16 16 16 16 16 17 17 17 17 17 18 18 19 18 19 19 19 20 21 21 20 18 19 22 25 25 26 26 26 27 27 26 24 19 16 16 17 17 17 18 19 19 19 18 17 15 14 13 13 14
14 14 15 15 16 16 16 16 17 17 17 17 18 18 17 17 17 17 17 17 17 17 17 17 17 17 17 17 17 17 17 18 19 20 19 19 20 21 22 22 21 22 23 25 25 26 26 26 27 27 25 22 16 14 14 14 14 15 17 18 18 18 18 17 16 15 13 13 14
14 15 15 16 16 16 16 17 17 17 18 18 18 18 18 18 17 17 16 16 17 17 17 17 17 18 18 18 17 17 17 18 19 20 20 20 20 21 21 22 22 22 23 24 25 25 26 26 26 26 24 19 16 14 13 12 12 12 14 16 16 16 16 16 15 14 13 12 12
15 15 16 16 16 17 17 17 17 18 18 18 18 18 17 17 17 16 16 15 16 17 18 17 18 18 18 18 18 18 19 19 19 20 20 21 20 20 21 22 22 21 21 23 24 25 26 26 26 25 23 18 16 14 13 11 11 11 12 13 13 14 14 13 13 13 13 12 14
15 15 16 16 17 17 17 17 18 18 18 18 18 18 18 17 16 16 15 15 16 17 17 18 18 18 18 18 18 19 19 19 20 20 20 20 20 21 21 22 22 21 21 22 24 25 25 26 26 25 23 19 16 13 11 10 11 12 12 12 12 13 13 12 12 12 13 14 17
15 16 16 16 17 17 17 18 18 18 17 18 18 18 18 17 16 16 16 15 16 16 17 17 18 19 18 18 18 19 20 20 19 19 20 20 21 21 22 22 21 21 21 22 23 24 25 25 25 25 23 18 15 12 10 10 11 11 12 11 11 11 11 11 11 11 11 14 16
15 16 16 17 17 17 17 18 18 18 17 17 18 18 17 16 16 16 16 15 16 16 16 16 18 19 19 19 18 18 20 21 20 20 20 21 21 21 20 20 20 20 20 21 22 23 24 25 25 25 23 18 14 11 10 9 10 11 12 12 11 10 10 11 10 10 10 12 12
Wind_Direction
282 282 283 286 288 288 286 286 287 287 287 288 289 290 290 289 288 288 287 286 284 283 283 282 281 282 282 283 283 282 280 277 272 267 262 260 259 257 255 253 251 249 247 247 246 245 243 239 237 236 235 234 236 237 237 237 237 237 237 236 237 237 237 237 237 237 236 235 235
296 292 289 287 286 285 284 285 283 282 282 283 286 290 291 291 290 290 290 289 287 286 285 284 283 283 284 285 286 285 283 280 277 273 269 265 263 260 258 255 253 250 248 247 246 245 244 240 238 236 235 233 235 236 235 234 234 236 237 237 238 238 238 239 239 239 238 238 236
305 302 296 288 284 284 283 285 285 287 289 290 292 293 293 291 290 290 290 290 289 288 288 286 286 287 287 288 287 286 284 282 280 276 273 270 266 263 260 257 254 251 249 247 245 244 243 242 240 238 236 234 233 235 236 235 233 234 236 237 237 237 237 238 239 239 239 238 236
310 307 302 297 294 293 290 288 290 293 295 295 294 292 290 287 285 285 286 289 289 288 288 289 290 291 291 291 290 289 287 285 282 279 276 272 269 267 264 260 257 253 250 247 245 244 243 242 241 240 238 237 237 237 236 235 233 233 234 234 235 235 236 237 237 237 237 238 236
315 313 309 303 301 299 295 291 292 293 293 292 290 287 284 281 280 282 285 288 289 290 292 294 294 295 294 293 292 291 290 288 285 281 277 274 272 269 266 262 259 255 252 249 245 243 242 240 241 240 240 239 237 237 237 236 235 234 234 233 232 233 234 235 235 235 235 236 234
317 315 310 305 303 299 295 291 291 292 291 288 285 283 282 281 282 285 288 289 291 293 295 295 294 293 293 294 293 292 291 289 286 283 279 276 274 271 269 265 261 257 253 250 246 244 241 238 239 240 239 240 240 239 238 236 236 235 234 233 231 230 231 232 232 232 232 233 233
313 311 309 307 305 301 298 296 295 293 290 286 284 284 285 287 288 289 291 291 292 293 293 293 292 292 293 295 294 293 292 292 289 286 283 279 276 273 271 268 264 260 256 251 248 244 240 236 237 238 238 238 240 238 236 234 234 234 233 232 230 228 229 231 230 230 231 233 233
309 309 309 308 306 304 302 301 299 296 291 286 285 286 289 290 291 291 291 290 288 288 289 289 290 291 293 293 293 292 292 291 290 288 285 282 279 277 274 271 267 263 258 253 249 245 241 236 236 236 237 236 238 237 235 233 233 233 233 233 232 229 226 225 226 227 229 232 232
310 311 312 310 308 308 307 305 301 297 292 287 287 288 290 291 291 290 289 287 287 287 288 288 289 291 291 291 290 290 290 289 288 287 286 284 282 280 277 274 270 266 262 256 251 246 242 238 236 236 235 235 237 237 235 233 232 232 233 234 234 232 228 225 224 225 227 229 229
314 315 315 312 313 313 311 308 302 296 292 288 289 289 290 289 288 287 286 286 287 287 287 287 289 290 290 289 288 287 287 286 286 285 285 283 281 280 278 276 273 270 266 261 255 249 244 240 238 237 236 236 238 239 239 235 233 233 233 234 235 235 233 229 226 225 226 226 226
315 316 316 314 315 314 311 308 302 297 294 291 292 292 292 290 287 286 285 285 285 285 285 286 287 288 288 287 287 285 284 284 283 283 283 282 281 279 278 276 274 272 270 267 262 256 249 244 242 240 239 239 240 241 241 238 236 234 234 236 236 237 236 235 231 228 227 226 225
314 313 312 311 311 310 307 304 300 297 294 293 294 294 293 291 290 290 288 286 285 285 285 287 286 286 285 284 284 284 283 282 282 282 281 280 280 278 277 275 274 272 271 269 266 262 256 250 248 246 244 243 242 242 241 239 237 237 237 238 238 238 238 238 234 232 230 228 227
311 310 308 308 307 306 303 300 297 295 294 294 294 294 294 293 293 292 290 288 287 288 288 289 287 285 283 283 284 284 284 284 283 282 281 280 279 278 277 275 274 272 271 269 266 262 259 256 253 251 250 248 247 246 245 243 241 240 239 240 239 239 239 238 236 235 234 233 231
307 306 305 305 305 303 300 297 295 293 292 293 293 294 294 294 294 292 291 290 291 291 291 291 288 286 285 285 286 286 285 284 283 282 280 279 278 277 276 274 273 272 271 269 265 262 259 258 256 254 253 252 252 252 250 249 246 245 244 243 243 242 241 239 237 236 236 236 236
306 305 305 303 302 300 298 296 293 291 291 291 293 294 295 295 294 294 293 293 293 292 292 291 290 289 289 288 287 287 285 284 283 281 280 278 277 276 275 274 273 271 269 267 265 262 260 258 257 256 255 255 255 255 254 253 251 250 248 247 246 246 245 244 242 239 237 237 238
306 305 304 303 301 299 297 296 293 292 292 292 295 296 296 296 296 296 295 295 294 293 293 292 293 293 292 290 289 288 287 285 283 282 281 280 279 278 276 275 274 272 270 267 265 263 262 260 258 256 256 255 256 256 256 255 254 252 251 249 249 249 249 248 246 244 242 240 240
305 305 304 303 301 300 299 297 296 295 295 295 297 297 297 297 298 298 297 296 296 295 295 295 295 294 293 292 291 290 288 287 285 284 283 282 281 281 279 278 276 275 271 266 265 264 264 263 262 260 258 256 256 256 256 255 254 253 252 251 251 250 250 250 249 248 247 244 243
305 305 305 303 302 301 300 299 298 296 296 297 297 297 298 298 298 298 297 296 295 295 295 295 294 293 292 292 292 290 289 288 286 285 284 283 282 281 280 279 278 276 273 266 264 265 265 265 265 264 262 259 257 255 255 254 254 254 254 253 252 251 250 250 250 250 250 248 247
306 306 306 306 305 303 302 300 299 298 297 297 298 298 298 297 297 296 296 295 294 294 295 295 294 293 292 292 291 290 289 288 286 285 284 282 281 280 279 278 277 276 273 265 263 264 265 266 266 266 265 262 260 257 256 255 255 255 255 255 254 253 251 251 250 251 251 250 250
307 307 308 307 306 304 302 300 299 299 299 298 298 297 297 296 296 295 295 295 295 295 295 294 294 293 292 292 291 290 289 287 286 285 284 283 281 280 278 278 277 275 272 263 260 261 263 265 266 266 265 263 261 260 260 259 259 258 258 257 256 254 253 251 250 250 250 250 250
308 308 309 308 305 303 301 300 300 299 299 298 297 296 296 296 295 294 294 295 295 295 294 293 293 292 292 292 291 291 289 287 286 285 284 283 281 279 278 277 277 276 273 264 259 259 261 263 264 264 263 261 260 260 261 262 262 261 260 259 258 256 254 252 250 249 248 248 248
309 309 308 307 304 302 301 300 300 299 298 297 296 296 296 296 295 295 295 296 295 295 294 293 293 293 292 292 291 290 289 287 285 284 283 282 280 279 278 277 277 276 274 268 261 259 260 262 262 261 260 260 259 258 258 260 262 263 263 262 260 258 255 252 251 249 248 247 247
309 308 307 305 303 302 301 300 300 299 298 297 297 296 296 296 296 296 297 296 295 295 294 294 294 293 293 292 291 290 288 287 285 283 282 281 281 281 280 279 278 276 274 269 261 257 256 258 258 256 254 255 256 256 256 257 259 260 261 262 261 258 255 252 250 249 248 247 246
307 307 306 304 303 302 301 300 299 298 298 297 298 298 297 297 297 297 297 296 295 295 295 295 294 294 293 292 290 288 287 287 286 285 284 283 283 283 283 282 279 277 274 270 265 260 258 260 257 254 249 246 248 251 254 255 256 256 257 258 258 257 255 252 249 247 247 246 246
305 305 304 303 302 301 301 300 299 299 298 298 298 297 297 297 297 297 297 297 296 296 295 295 294 293 293 291 290 288 287 286 287 287 288 287 287 287 286 285 283 280 277 273 272 272 271 273 273 269 262 253 252 254 257 258 256 255 255 254 254 254 254 253 251 248 246 245 243
304 303 303 302 301 300 300 299 298 298 297 297 297 296 296 297 297 297 297 296 296 296 296 296 295 294 292 291 290 290 289 288 289 290 290 291 290 289 288 286 284 281 277 274 276 277 278 279 279 278 276 270 267 268 269 269 265 261 259 256 254 253 253 254 254 252 249 245 241
303 302 300 299 299 298 297 297 297 297 296 296 296 296 296 297 297 297 296 296 296 297 297 296 295 294 293 292 291 292 292 291 291 291 291 290 290 289 288 286 284 280 275 274 277 279 280 281 282 282 281 277 274 274 275 275 273 269 265 262 259 256 254 254 256 256 254 251 245
300 299 298 298 297 297 296 297 297 296 296 297 297 297 297 297 296 296 295 296 296 297 297 295 295 294 294 293 293 293 293 293 292 291 290 289 288 288 287 287 286 282 278 279 281 283 284 285 286 286 286 284 281 278 277 277 276 274 271 268 266 264 262 261 260 259 258 255 251
296 296 296 297 296 296 296 297 297 297 297 297 297 297 297 296 296 295 296 296 297 297 297 296 296 295 293 292 293 292 292 291 290 289 289 288 287 287 287 287 286 285 284 286 287 288 289 289 289 289 288 287 285 282 279 277 277 276 275 273 270 268 267 266 266 264 263 260 256
294 294 294 294 294 295 296 296 296 297 298 297 297 297 296 296 296 296 296 297 296 296 296 296 295 293 292 291 291 291 290 289 289 288 288 288 288 288 287 287 287 287 287 289 289 289 289 289 289 288 288 287 286 283 279 277 275 275 274 273 272 270 267 265 264 264 264 263 260
293 292 292 293 294 295 295 296 297 297 298 298 297 297 297 296 296 296 296 296 295 295 294 293 291 290 290 290 290 289 289 289 289 289 289 288 288 288 288 288 288 287 287 288 288 288 289 289 289 289 289 289 288 286 283 280 278 276 275 274 273 273 272 271 268 265 264 263 263
294 294 293 294 294 295 296 297 298 298 298 298 298 297 296 296 295 295 295 295 294 294 293 292 291 290 290 291 290 290 290 290 290 290 290 289 289 289 289 289 289 288 287 288 289 289 289 290 290 290 290 290 289 287 283 281 279 278 276 275 274 274 274 274 273 271 269 267 266
297 296 295 295 295 296 297 298 299 299 299 299 298 297 296 296 295 294 294 293 292 292 292 292 292 292 292 292 292 292 291 291 290 290 290 290 290 290 289 289 288 288 289 289 290 290 290 290 291 291 291 291 289 287 285 282 281 279 277 276 275 274 273 271 270 269 268 267 266
299 298 297 297 297 297 298 299 299 299 299 298 297 296 295 295 294 294 293 292 291 291 291 291 291 291 291 291 291 292 292 291 291 291 291 291 291 291 290 289 288 289 290 290 291 291 291 292 291 291 291 291 290 288 285 284 282 279 278 277 276 275 273 271 269 266 265 264 264
301 300 300 299 299 299 299 299 299 299 299 298 296 295 294 294 293 292 292 292 292 291 290 290 290 289 289 290 290 290 291 291 292 292 292 292 292 292 291 289 288 289 290 291 292 293 293 293 293 292 292 292 290 287 285 284 283 281 280 280 279 279 278 277 273 269 266 264 264
302 302 301 301 300 299 299 299 299 299 298 296 296 295 295 294 293 292 292 293 292 291 290 290 290 290 290 290 290 290 291 292 293 293 293 293 292 292 291 290 290 291 292 293 294 295 295 294 293 293 293 292 290 288 287 286 284 283 283 283 282 282 282 281 278 274 270 265 264
303 303 302 301 300 299 299 299 298 298 297 296 295 295 295 294 294 293 293 293 292 291 291 291 291 291 291 292 292 292 292 293 293 293 293 293 292 292 292 292 292 293 294 296 296 296 296 294 294 293 293 293 291 289 288 285 283 282 282 281 281 281 281 281 279 276 271 264 260
303 302 301 299 299 298 298 298 297 297 296 296 295 295 295 295 294 293 293 293 292 291 291 291 291 291 292 293 293 292 292 292 292 292 293 293 293 293 293 293 294 294 296 297 297 296 295 294 293 293 293 292 291 289 287 283 280 278 277 277 276 276 276 275 276 274 271 265 260
302 301 299 298 298 297 297 297 296 296 296 296 296 295 295 295 293 293 293 292 291 291 291 291 292 292 293 294 293 293 293 292 292 292 293 293 293 293 294 294 294 295 295 296 296 295 294 294 293 294 293 292 290 288 285 280 277 276 275 275 276 275 274 272 272 271 270 267 264
300 299 298 297 297 297 297 296 296 296 296 296 296 296 295 294 293 293 292 291 290 290 291 291 292 293 293 294 294 293 293 293 293 293 293 293 294 294 294 293 293 294 295 295 295 294 294 293 294 294 294 292 290 287 283 278 276 275 275 275 276 276 276 274 272 271 271 271 268
298 298 297 296 296 296 296 296 296 296 296 295 295 295 294 294 293 292 292 292 292 292 293 293 293 294 294 294 294 294 294 294 294 294 294 294 294 294 293 292 292 293 294 294 294 293 293 293 293 294 295 294 292 288 284 279 277 276 277 278 277 276 274 274 272 270 269 270 269